Regional Weather Roundup
Issued by NWS Grand Forks, ND

Home | Current Version | Previous Version | Text Only | Print | Product List | Glossary On
Versions: 1 2 3 4 5 6 7 8 9 10 11 12 13 14 15 16 17 18 19 20 21 22 23 24 25 26 27 28 29 30 31 32 33 34 35 36 37 38 39 40 41 42 43 44 45 46 47 48 49 50
000
ASUS43 KFGF 260131
RWRFGF
PRAIRIE TO PINES  WEATHER ROUNDUP
NATIONAL WEATHER SERVICE EASTERN NORTH DAKOTA/GRAND FORKS ND
700 PM CST SAT FEB 25 2017

 **SATELLITE DATA USED TO AUGMENT SKY COVER AT AUTOMATED STATIONS**
 *****  WEATHER ACROSS EASTERN NORTH DAKOTA  *****

CITY           SKY/WX    TMP DP  RH WIND       PRES   REMARKS
GRAND FORKS    FAIR      22  14  71 N7        29.75S WCI  13
GRAND FRKS AFB FLURRIES  23  16  74 N12       29.75S WCI  12
DEVILS LAKE    CLOUDY    19  13  77 NW9       29.73F WCI   8
FARGO          CLOUDY    28  22  78 NW6       29.75F WCI  22
WAHPETON ARPT    N/A     28  27  93 CALM      29.76F
$$

 ***** WEATHER ACROSS CENTRAL AND WESTERN NORTH DAKOTA  *****

CITY           SKY/WX    TMP DP  RH WIND       PRES   REMARKS
BISMARCK       MOCLDY    19  17  92 SE6       29.70F WCI  11
MINOT          LGT SNOW  17  14  88 N10       29.69S WCI   5
JAMESTOWN      FAIR      23  17  78 W7        29.72F WCI  15
MINOT AFB      LGT SNOW  16  12  86 N9        29.69F FOG     WCI   4
GARRISON         N/A     23  20  88 S5        29.64F WCI  17
WILLISTON      FAIR      17  13  84 N10       29.70S WCI   5
DICKINSON      MOCLDY    20  17  88 SW7       29.62F WCI  11
HETTINGER      SNOW      26  24  92 W12       29.69R VSB 1/4 WCI  16
$$

 *****  OTHER AIRPORT OBSERVATIONS IN OUR AREA  *****

CITY           SKY/WX    TMP DP  RH WIND       PRES   REMARKS
WALHALLA       NOT AVBL
GRAFTON AIRPOR MOCLDY    16  14  93 N12       29.79S WCI   3
VALLEY CITY AR FAIR      23  23 100 W8        29.75S WCI  14
CANDO          NOT AVBL
CAVALIER APRT    N/A     16   7  67 NW7       29.77S WCI   6
GWINNER        CLOUDY    30  27  86 NW5       29.75F
SHEYENNE NWR     N/A     28  21  76 NW3       29.95S
ROLLA          FLURRIES  10   9  92 N10       29.70F WCI  -3
 ***** THE ABOVE OBSERVATIONS ARE NON NWS ARE NOT QUALITY
       CONTROLLED AND MAY MIS-REPORT RAIN FOR SNOW...
$$

  *****  WEATHER ACROSS NORTHERN MINNESOTA  *****

CITY           SKY/WX    TMP DP  RH WIND       PRES   REMARKS
FLAG ISLAND    MOCLDY    18  10  73 W16       29.67F WCI   3
WARROAD        MOCLDY    18  10  73 W7        29.71F WCI   8
ROSEAU         MOCLDY    19  12  73 W8        29.72S WCI   9
HALLOCK        FAIR      12  10  92 N6        29.76F WCI   3
THF RVR FALLS  FAIR      21  16  81 NW13      29.74F WCI   9
BAUDETTE       CLOUDY    20  13  74 NW10      29.69R WCI   9
WASKISH        CLOUDY    18  14  86 W6        29.70F WCI   9
CROOKSTON      FAIR      23  18  80 N10       29.76S WCI  12
STEPHEN NDAWN    N/A     16  12  86 N12         N/A  WCI   3
GREENBUSH NDAW   N/A     14  10  85 NW9         N/A  WCI   2
$$
  *****  WEATHER ACROSS CENTRAL AND WEST MINNESOTA  *****

CITY           SKY/WX    TMP DP  RH WIND       PRES   REMARKS
FOSSTON        FAIR      21  18  86 W3        29.72F
BEMIDJI        FAIR      23  18  82 SW6       29.70F WCI  16
PARK RAPIDS    FLURRIES  26  20  77 NW8       29.72F WCI  18
ELBOW LAKE     LGT SNOW  27  27  99 N3        29.75F
WADENA         LGT SNOW  25  25 100 W5        29.73F VSB 1   WCI  19
DETROIT LAKES  FAIR      28  27  93 W3        29.73F
MOORHEAD       CLOUDY    28  21  74 NW8       29.76S WCI  20
FERGUS FALLS   LGT SNOW  27  27 100 NW3       29.79F
MORRIS MN      FAIR      32  23  69 S12       29.74F WCI  23
STAPLES        LGT SNOW  27  27 100 SW5       29.74S WCI  21
$$
  *****  WEATHER ELSEWHERE ACROSS MINNESOTA  *****

CITY           SKY/WX    TMP DP  RH WIND       PRES   REMARKS
DULUTH         MOCLDY    27  17  66 SW12      29.72F WCI  17
INTRNTL FALLS  LGT SNOW  20  16  84 W5        29.68F FOG     WCI  13
ELY            CLOUDY    19  12  73 S5        29.68F WCI  13
CLOQUET        FLURRIES  27  18  69 SW10G20   29.74S WCI  17
WHEATON        CLOUDY    28  27  93 NW7       29.78S WCI  21
BRAINERD       LGT SNOW  27  26  96 SW6       29.75F VSB 3/4 WCI  20
HIBBING        LGT SNOW  24  17  74 W6        29.70S WCI  17
ALEXANDRIA     CLOUDY    32  22  66 SW13      29.75F WCI  22
SAINT CLOUD    CLOUDY    31  22  69 S10       29.79F WCI  22
MINNEAPOLIS    CLOUDY    29  19  66 SW13      29.87S WCI  19
$$

  *****  WEATHER ACROSS SOUTH DAKOTA  *****

CITY           SKY/WX    TMP DP  RH WIND       PRES   REMARKS
SIOUX FALLS    CLOUDY    26  18  71 S15       29.84F WCI  14
BROOKINGS      FAIR      25  18  74 S13       29.79F WCI  14
WATERTOWN      MOCLDY    29  21  72 SW21      29.74F WCI  16
HURON          CLOUDY    31  22  69 S8        29.77F WCI  23
SISSETON         N/A     30  28  92 N9        29.75S WCI  22
ABERDEEN       FLURRIES  28  23  81 N7        29.76S WCI  21
MITCHELL       FAIR      29  21  72 S12       29.81F WCI  19
PIERRE         FAIR      28  21  75 N6        29.75F WCI  22
MOBRIDGE       FAIR      28  20  71 MISG      29.70F
RAPID CITY     FAIR      23  19  85 N6        29.69F WCI  16
$$

  *****  SOME WEATHER IN NEARBY STATES *****

CITY           SKY/WX    TMP DP  RH WIND       PRES   REMARKS
GLASGOW MT     FAIR      22  16  78 NE8       29.66F WCI  12
GREAT FALLS MT FAIR      28   5  37 W24G32    29.65S WCI  14
CHEYENNE WY    FAIR      18   2  49 W20       29.73F WCI   2
SCOTTSBLUFF NE FAIR      27  12  53 W24G32    29.78F WCI  12
OMAHA NE       FAIR      33  20  58 S12       29.96F WCI  24
DES MOINES IA  CLOUDY    30  20  66 S5        30.01F
DAVENPORT IA   FAIR      27  19  72 W8        30.05R WCI  19
CHICAGO IL     FAIR      26  14  60 W8        29.98R WCI  18
EAU CLAIRE WI  MOCLDY    24  13  62 SW9       29.88S WCI  14
LA CROSSE WI   FAIR      24  12  60 SW10      29.97R WCI  14
$$

  *****  SOME NATIONAL WEATHER *****

CITY           SKY/WX    TMP DP  RH WIND       PRES   REMARKS
LA GUARDIA NY  LGT RAIN  51  45  79 NW20      29.57R
RALEIGH NC     FAIR      65  23  20 NW10G20   29.72R
ATLANTA GA     FAIR      51  18  27 NW14      29.98R
NEW ORLEANS LA FAIR      63  34  33 N6        30.08R
OKLAHOMA CITY  FAIR      36  16  44 S7        30.06R
ALBUQUERQUE NM FAIR      50  -7   9 W17       29.86S
SALT LAKE CITY FAIR      32  19  58 CALM      30.00F
LOS ANGELES CA MOCLDY    55  47  74 S7        30.01F
BOISE ID       FAIR      37  14  38 N3        30.01F
SEATTLE WA     CLOUDY    43  31  62 SW7       30.06F
$$

*** WEATHER ACROSS MANITOBA...SASKATCHEWAN AND ONTARIO ***
                ***ONTARIO***

CITY           SKY/WX    TMP DP  RH WIND       PRES   REMARKS
GERALDTON      CLEAR     12   0  57 W9        29.58R WCI   0
THUNDER BAY    CLEAR     21   5  49 W7        29.71R WCI  13
SIOUX LOOKOUT  FLURRIES  12   3  67 NW3       29.63F
TORONTO        FLURRIES  30  21  69 W28G36    29.69R WCI  16
BIG TROUT LK   FLURRIES   5  -2  72 W8        29.60F WCI  -8
PICKLE LAKE    PTCLDY     7  -4  61 NW5       29.59S WCI  -2
DRYDEN         FLURRIES  16  12  86 S5        29.61F WCI   9
KENORA         LGT SNOW  16  14  93 W9        29.62S WCI   4
$$
                *** MANITOBA***

CITY           SKY/WX    TMP DP  RH WIND       PRES   REMARKS
BRANDON        MOCLDY    10   3  72 NW16      29.74S WCI  -7
DAUPHIN        CLEAR      9   1  72 W15G21    29.74F WCI  -8
ISLAND LAKE    PTCLDY     1  -6  71 NW3       29.65F
PILOT MOUND      N/A     10   5  79 NW8         N/A  WCI  -1
THE PAS        PTCLDY     3  -6  66 NW2       29.71F
THOMPSON       PTCLDY    -2  -8  78 W3        29.68F
WINNIPEG       CLOUDY    12   5  73 NW8       29.76S WCI   1
LYNN LAKE      PTCLDY    -6  -9  84 NW5       29.66S WCI -17
CHURCHILL      CRYSTALS -15 -20  76 NW8       29.73S WCI -32
GILLAM         FLURRIES  -6 -11  77 NW6       29.66F WCI -18
$$
                ***SASKATCHEWAN***

CITY           SKY/WX    TMP DP  RH WIND       PRES   REMARKS
ESTEVAN        MOCLDY    10   7  85 NW6       29.70F WCI   1
KINDERSLEY     MOCLDY    18  14  86 S7        29.60F WCI   8
LLOYDMINSTER   CLOUDY    16  10  79 SW5       29.59S WCI   9
PRINCE ALBERT  MOCLDY    10   0  61 SW2       29.65F
REGINA         PTCLDY    10   5  79 NW5       29.69F WCI   2
YORKTON        CLEAR      5   0  78 W3        29.70F
N. BATTLEFORD  MOCLDY    16  10  79 S3        29.64F
LA RONGE       PTCLDY     7   0  72 S5        29.63S WCI  -2
SASKATOON      MOCLDY    16   7  67 S2        29.67F
SWIFT CURRENT  CLOUDY    12   9  85 SE8       29.61F WCI   1
$$
NOTE: THESE ARE AUTOMATED STATIONS WITH LIMITED QUALITY CONTROL
      "FAIR" INDICATES FEW OR NO CLOUDS BELOW 12,000 FEET WITH NO
      SIGNIFICANT WEATHER AND/OR OBSTRUCTIONS TO VISIBILITY.
      SKY/WX - SKY CONDITION AND SIGNIFICANT WEATHER.
      TMP - AIR TEMPERATURE.    DP   - DEWPOINT TEMPERATURE.
      RH  - RELATIVE HUMIDITY.  PRES - PRESSURE.
      HX  - HEAT INDEX.         WCI  - WIND CHILL INDEX.
$



USA.gov is the U.S. government's official web portal to all federal, state and local government web resources and services.